Location: L'Union
(43.6635°N, 1.4699°E)
Time: 06:56:04
(UTC+02:00)

AAUSAT CUBESAT 2 - Visible Passes

Search period start: 26 October 2021 00:00
Search period end: 04 November 2021 23:00
Orbit: 572 x 587 km, 97.5° (Epoch: 25 October)

Date Brightness Start Highest point End Pass type
(mag) Time Alt. Az. Time Alt. Az. Time Alt. Az.
26 Oct ? 06:02:07 10° ENE 06:04:18 14° E 06:06:28 10° ESE visible
26 Oct ? 07:35:57 10° N 07:39:55 50° WNW 07:43:52 10° SSW visible
27 Oct ? 06:06:38 10° NE 06:09:10 16° E 06:11:41 10° SE visible
27 Oct ? 07:40:50 10° N 07:44:44 44° WNW 07:48:36 10° SW visible
28 Oct ? 06:11:13 10° NE 06:14:02 18° E 06:16:50 10° SE visible
28 Oct ? 07:45:43 10° N 07:49:32 38° WNW 07:53:19 10° SW visible
29 Oct ? 06:15:51 10° NE 06:18:55 20° E 06:21:56 10° SE visible
29 Oct ? 07:50:37 10° N 07:54:20 34° WNW 07:58:01 10° SW visible
30 Oct ? 06:20:30 10° NE 06:23:46 22° E 06:27:00 10° SSE visible
30 Oct ? 07:55:31 10° N 07:59:08 30° WNW 08:02:42 10° SW visible
31 Oct ? 05:25:11 10° NE 05:28:37 25° E 05:32:01 10° SSE visible
01 Nov ? 05:29:53 10° NE 05:33:28 28° E 05:37:01 10° SSE visible
02 Nov ? 05:34:36 10° NNE 05:38:19 32° E 05:41:58 10° SSE visible
03 Nov ? 05:39:21 10° NNE 05:43:09 36° E 05:46:54 10° SSE visible
04 Nov ? 05:44:05 10° NNE 05:47:59 41° E 05:51:50 10° S visible
04 Nov ? 18:10:05 10° SSW 18:13:21 22° W 18:16:38 10° NW visible
